Regional Weather Roundup
Issued by NWS

Home | Current Version | Previous Version | Graphics & Text | Print | Product List | Glossary On
Versions: 1 2 3 4 5 6 7 8 9 10 11 12 13 14 15 16 17 18 19 20 21 22 23 24 25 26 27 28 29 30 31 32 33 34 35 36 37 38 39 40 41 42 43 44 45 46 47 48 49 50
000
ASUS43 KDTX 221701
RWRMI
MICHIGAN HOURLY REGIONAL WEATHER ROUNDUP
NATIONAL WEATHER SERVICE DETROIT/PONTIAC MI
100 PM EDT SUN APR 22 2018

NOTE: "FAIR" INDICATES FEW OR NO CLOUDS BELOW 12,000 FEET WITH NO
SIGNIFICANT WEATHER AND/OR OBSTRUCTION TO VISIBILITY.

MIZ047>049-052>055-059>063-066>070-074>076-081>083-221800-
SOUTHEAST LOWER MICHIGAN

CITY           SKY/WX    TMP DP  RH WIND       PRES   REMARKS
ADRIAN         FAIR      57  24  28 SE14G24   30.39F
ALMA           FAIR      59  28  30 E6        30.41F
ANN ARBOR      FAIR      57  24  28 E9G20     30.40F
BAD AXE        FAIR      60  15  17 SE7       30.43F
CARO           FAIR      60  21  22 E5        30.41F
DETROIT CITY   FAIR      56  27  32 E8        30.42F
DETROIT        FAIR      58  23  26 E10G21    30.41F
FLINT          FAIR      59  26  28 MISG      30.40F
GROSSE ILE     FAIR      58  26  29 E9        30.40F
HILLSDALE      FAIR      55  21  26 E13       30.37F
HOWELL         FAIR      57  22  25 E7G16     30.40S

CITY           SKY/WX    TMP DP  RH WIND       PRES   REMARKS
JACKSON        FAIR      58  24  27 NE14      30.38F
LAMBERTVILLE   FAIR      56  22  26 E13G21    30.39F
LANSING        FAIR      60  26  27 SE9       30.40F
LAPEER         FAIR      57  24  27 SE5       30.42S
MASON          FAIR      60  17  18 E5G16     30.39F
PONTIAC        FAIR      57  24  28 E9        30.40F
PORT HOPE        N/A     44  36  73 E10       30.43F
PORT HURON     FAIR      57  25  28 N5        30.43S
TRI CITIES     FAIR      59  24  26 E8        30.43S
MIDLAND        FAIR      57  31  36 E13       30.41F
TROY           FAIR      57  19  22 SE6       30.43S
SAGINAW HB     FAIR      59  23  25 NE8       30.41F
$$
MIZ043>046-050>051-056>058-064>065-071>073-077>080-221800-
SOUTHWEST LOWER MICHIGAN

CITY           SKY/WX    TMP DP  RH WIND       PRES   REMARKS
BATTLE CREEK   FAIR      58  24  27 E12G22    30.38F
BENTON HARBOR  FAIR      62  23  22 E9G21     30.35F
BIG RAPIDS     FAIR      59  14  17 SE10G17   30.39F
COLDWATER      FAIR      58  25  28 E10G16    30.37F
HOLLAND        FAIR      60  28  29 E9        30.38F
GRAND RAPIDS   PTSUNNY   60  28  29 E10       30.39F
IONIA          FAIR      59  26  28 E7        30.39F
KALAMAZOO      FAIR      60  23  24 E9G18     30.38F
LUDINGTON      FAIR      55  25  31 W8        30.39F
MARSHALL       FAIR      58  22  25 SE12      30.38F
MOUNT PLEASANT FAIR      61  26  27 SE5       30.39F
MUSKEGON       FAIR      62  23  22 VRB7      30.38F
SOUTH HAVEN    FAIR      60  19  20 SE12G17   30.36F
$$
MIZ016>042-221800-
NORTHERN LOWER MICHIGAN

CITY           SKY/WX    TMP DP  RH WIND       PRES   REMARKS
ALPENA         FAIR      54  21  27 E7        30.44F
BEAVER ISLAND  FAIR      52  22  31 NW5       30.43S
BELLAIRE       FAIR      59  18  20 CALM      30.41F
CADILLAC       FAIR      58  18  21 SE3       30.38F
CHARLEVOIX     FAIR      46  27  47 N5        30.45S
FRANKFORT      FAIR      61  25  25 NW3       30.40F
GAYLORD        FAIR      55  16  21 VRB3      30.41F
HARBOR SPRINGS FAIR      59  17  19 W3        30.41F
HOUGHTON LAKE  FAIR      58  22  24 CALM      30.40F
MANISTEE       FAIR      59  24  26 NW10      30.39F
OSCODA         FAIR      53  23  30 E5        30.45S
PELLSTON       FAIR      57  18  21 SE5       30.42F
ROGERS CITY    FAIR      49  23  36 NE5       30.44F
TRAVERSE CITY  FAIR      54  29  38 N5        30.40F
$$
MIZ007>008-015-221800-
EASTERN UPPER MICHIGAN

CITY           SKY/WX    TMP DP  RH WIND       PRES   REMARKS
KINROSS        FAIR      56  16  20 S6        30.42F
MACKINAC ISLAN FAIR      54  14  20 SE3       30.43F
NEWBERRY       FAIR      50  15  25 S10       30.41S
S. S. MARIE    FAIR      55  25  31 SE6       30.42F
MUNISING         N/A     58  27  30 S9        30.37F
$$
MIZ004>006-011>014-085-221800-
CENTRAL UPPER MICHIGAN

CITY           SKY/WX    TMP DP  RH WIND       PRES   REMARKS
MANISTIQUE     FAIR      49  19  29 S8        30.43S
ESCANABA       FAIR      48  29  47 SE8       30.42S
MENOMINEE      FAIR      56  28  34 SE9       30.41F
SAWYER-GWINN   SUNNY     54  19  26 CALM      30.37F
$$
MIZ001>003-009>011-084-221800-
WESTERN UPPER MICHIGAN

CITY           SKY/WX    TMP DP  RH WIND       PRES   REMARKS
IRON MOUNTAIN  FAIR      59  19  21 VRB5      30.36F
HOUGHTON       FAIR      51  17  26 SE6       30.36F
COPPER HARBOR    N/A     52  11  19 SW9       30.36F
IRONWOOD       FAIR      57  20  23 VRB3      30.34F
$$

ABBREVIATIONS USED IN REMARKS
   TC - TEMPERATURE IN CELSIUS
  WCI - WIND CHILL INDEX
   HX - HEAT INDEX
  VSB - VISIBILITY





USA.gov is the U.S. government's official web portal to all federal, state and local government web resources and services.